User: anonymous   Login
Location: Unspecified
(0.0000°N, 0.0000°E)
Time: 20:00:19
(UTC+00:00)
Language:

APRIZESAT 10 - Orbit

View from above orbital plane
View from above orbital plane
View from above satellite
View from above satellite

Ground track
Ground track

The orbit data is extracted from the following two-line orbital elements,

1 40019U 14033K   17144.87547913 +.00000041 +00000-0 +15348-4 0  9996
2 40019 097.8402 017.8107 0085386 039.1926 321.5420 14.66871554156804
Epoch (UTC): 24 May 2017 21:00:41
Eccentricity: 0.0085386
inclination: 97.8402°
perigee height: 611 km
apogee height: 731 km
right ascension of ascending node: 17.8107°
argument of perigee: 39.1926°
revolutions per day: 14.66871554
mean anomaly at epoch: 321.5420°
orbit number at epoch: 15680

The dashed part of the orbit path shows where the satellite is in the earth's shadow,  

DLR